Date,TemperatureHighF,TemperatureAvgF,TemperatureLowF,DewpointHighF,DewpointAvgF,DewpointLowF,HumidityHigh,HumidityAvg,HumidityLow,PressureMaxIn,PressureMinIn,WindSpeedMaxMPH,WindSpeedAvgMPH,GustSpeedMaxMPH,PrecipitationSumIn
2013-10-1,82.9,72.7,65.1,68.4,64.9,61.3,89,78,56,29.85,29.70,10,2,13,0.02
2013-10-2,83.3,73.7,65.8,68.4,63.3,57.6,84,71,56,30.12,29.82,8,2,11,0.00
2013-10-3,79.5,70.2,63.1,63.1,58.3,54.5,74,67,50,30.29,30.12,8,2,12,0.00
2013-10-4,76.3,69.4,62.6,60.8,58.3,54.9,80,69,56,30.35,30.23,6,3,9,0.00
2013-10-5,74.1,68.3,61.9,67.3,61.5,56.1,87,79,60,30.26,30.06,9,3,17,0.66
2013-10-6,79.2,72.3,66.4,70.2,66.1,62.2,88,81,70,30.09,30.00,8,2,14,0.37
2013-10-7,79.5,73.0,67.6,70.5,66.4,63.5,88,80,68,30.15,30.03,7,1,9,0.00
2013-10-8,76.6,70.0,65.8,67.1,63.6,60.8,86,81,69,30.17,30.06,10,2,16,0.19
2013-10-9,73.9,68.3,64.4,67.8,63.3,60.4,89,84,77,30.17,30.06,4,1,6,0.29
2013-10-10,69.1,65.7,64.4,64.6,61.7,60.4,88,87,86,30.12,30.00,4,2,5,0.00
2013-10-15,76.8,72.2,66.0,68.0,65.5,59.5,85,80,72,30.17,29.97,7,3,10,0.00
2013-10-16,81.7,74.0,66.2,69.8,65.0,59.2,88,75,55,29.97,29.76,13,4,19,0.16
2013-10-17,81.0,68.3,59.0,61.3,56.8,47.1,83,69,31,30.09,29.91,8,2,10,0.00
2013-10-18,77.7,66.4,57.7,64.2,58.2,51.3,83,76,56,30.15,30.03,7,2,10,0.00
2013-10-19,77.7,68.3,61.7,64.2,60.8,57.4,87,78,55,30.29,30.12,7,2,9,0.00
2013-10-20,77.7,68.7,61.3,66.2,61.7,55.8,84,79,64,30.35,30.26,5,3,8,0.00
2013-10-21,79.3,72.8,69.1,67.6,64.6,62.1,84,76,63,30.29,30.20,8,3,11,0.00
2013-10-22,80.6,70.8,64.4,68.2,63.8,60.1,87,79,60,30.26,30.15,7,3,10,0.00
2013-10-23,79.0,71.0,63.3,68.4,64.8,59.2,87,81,66,30.23,30.15,8,3,12,0.00
2013-10-24,76.1,70.5,67.1,67.5,64.7,62.4,87,83,74,30.20,30.15,7,2,10,0.02
2013-10-25,80.6,71.8,65.1,72.1,65.6,60.1,86,81,73,30.23,30.15,5,2,9,0.00
2013-10-26,84.0,72.5,65.1,71.2,66.1,61.0,88,81,64,30.29,30.20,6,2,9,0.00
2013-10-27,81.0,72.2,68.0,70.3,66.6,63.5,88,83,70,30.29,30.20,5,1,8,0.00
2013-10-28,81.3,74.1,68.9,71.8,67.9,63.5,86,81,72,30.23,30.12,8,3,10,0.00
2013-10-29,81.3,76.1,71.4,71.2,69.0,66.7,86,79,71,30.12,30.00,8,2,10,0.00
2013-10-30,79.7,73.2,67.3,69.6,66.7,63.1,87,81,69,30.06,29.97,5,2,9,0.00
2013-10-31,72.7,67.3,65.3,65.7,62.5,61.0,87,85,79,30.17,30.09,5,3,8,0.00